User: anonymous   Login
Location: Smithers
(54.7670°N, 127.1670°W)
Time: 14:09:46
(UTC-08:00)
Language:

ERBS - Orbit

View from above orbital plane
View from above orbital plane
View from above satellite
View from above satellite

Ground track
Ground track

The orbit data is extracted from the following two-line orbital elements,

1 15354U 84108B   18049.79521678 +.00003168 +00000-0 +73875-4 0  9998
2 15354 057.0077 155.2697 0008527 185.0015 175.0957 15.45335484836039
Epoch (UTC): 18 February 2018 19:05:06
Eccentricity: 0.0008527
inclination: 57.0077°
perigee height: 424 km
apogee height: 436 km
right ascension of ascending node: 155.2697°
argument of perigee: 185.0015°
revolutions per day: 15.45335484
mean anomaly at epoch: 175.0957°
orbit number at epoch: 83603

The dashed part of the orbit path shows where the satellite is in the earth's shadow,  

DLR